Regional Weather Roundup
Issued by NWS

Home | Current Version | Previous Version | Graphics & Text | Print | Product List | Glossary On
Versions: 1 2 3 4 5 6 7 8 9 10 11 12 13 14 15 16 17 18 19 20 21 22 23 24 25 26 27 28 29 30 31 32 33 34 35 36 37 38 39 40 41 42 43 44 45 46 47 48 49 50
000
ASUS45 KSLC 232310
RWRUT

UTAH REGIONAL WEATHER ROUNDUP
NATIONAL WEATHER SERVICE SALT LAKE CITY UT
500 PM MDT TUE SEP 23 2014

UTZ001>011-023>025-240000-

NORTHERN UTAH

CITY           SKY/WX    TMP DP  RH WIND       PRES   REMARKS
HILL AFB       SUNNY     80  47  31 VRB6      30.14F
LOGAN          SUNNY     80  49  33 VRB5      30.12F
OGDEN          SUNNY     81  47  30 SW7       30.11F
PROVO AIRPORT  MOSUNNY   81  46  30 CALM      30.13F
SALT LAKE CITY MOSUNNY   83  47  28 NE6       30.09F
VERNAL         CLOUDY    74  51  44 E8        30.16S
WENDOVER       SUNNY     81  52  36 CALM      30.09F
HEBER CITY     SUNNY     79  41  25 SW8       30.18F
WEST JORDAN    SUNNY     81  46  30 CALM      30.13F

$$

UTZ012>022-026-027-240000-

SOUTHERN UTAH

CITY           SKY/WX    TMP DP  RH WIND       PRES   REMARKS
BRYCE CANYON   SUNNY     72  37  28 CALM      30.32F
CEDAR CITY     SUNNY     80  37  21 NW5       30.17F
MILFORD        SUNNY     83  37  19 SE10      30.12F
MOAB/CYNLANDS  SUNNY     83  40  21 SW7       30.09F
PRICE          SUNNY     79  41  25 VRB6      30.19F
ST GEORGE      CLEAR     91  43  18 W5        30.01F
KANAB            N/A     82  37  20 S7        30.17F

$$

REGIONAL REPORTS     COLORADO/ARIZONA

CITY           SKY/WX    TMP DP  RH WIND       PRES   REMARKS
CRAIG, CO      MOSUNNY   73  45  36 W10       30.22F
GRAND JUNCTION SUNNY     81  45  28 NW12      30.12F
RIFLE          MOSUNNY   77  45  32 W8        30.16F
MONTROSE       SUNNY     78  45  30 N7        30.21F
CORTEZ         SUNNY     78  37  22 SW5       30.21F
PAGE, AZ       SUNNY     88  36  15 MISG      30.09F
GRAND CANYON   SUNNY     78  26  14 SW10      30.27F
KINGMAN        SUNNY     90  28  11 SW7       30.05F
FLAGSTAFF      SUNNY     76  36  23 W8        30.29F

$$

REGIONAL REPORTS    NEVADA/IDAHO/WYOMING

CITY           SKY/WX    TMP DP  RH WIND       PRES   REMARKS
LAS VEGAS, NV  SUNNY     95  33  11 SE8       29.90F HX  90
ELY            SUNNY     79  33  19 SW9       30.20F
ELKO           MOSUNNY   86  35  16 S12G21    30.07F
POCATELLO, ID  MOSUNNY   79  47  32 W6        30.10F
BURLEY         MOSUNNY   83  49  30 NE9       30.03F
EVANSTON, WY   MOSUNNY   71  40  32 W12G22    30.29S
ROCK SPRINGS   MOSUNNY   72  38  29 W17G26    30.24S

$$



USA.gov is the U.S. government's official web portal to all federal, state and local government web resources and services.